Weather History for Lawrence, MA

Change the Weather History Date:

Tuesday, November 15, 2011

  Actual Average Record
Temperature  
Mean Temperature 62 °F -  
Max Temperature 68 °F 48 °F 73 °F (1989)
Min Temperature 55 °F 31 °F 15 °F (1933)
Degree Days  
Heating Degree Days 2    
Growing Degree Days 12 (Base 50)    
Moisture  
Dew Point 48 °F    
Average Humidity 60    
Maximum Humidity 72    
Minimum Humidity 52    
Precipitation  
Precipitation 0.00 in - - ()
Sea Level Pressure  
Sea Level Pressure 29.79 in    
Wind  
Wind Speed 8 mph (WSW)    
Max Wind Speed 12 mph    
Max Gust Speed 23 mph    
Visibility 10 miles    
Events Rain    
Averages and records for this station are not official NWS values.
T = Trace of Precipitation, MM = Missing Value Source: NWS Daily Summary

Daily Weather History Graph

Daily Weather History Graph

Search for Another Location

Airport:

Trip Planner

Search our weather history database for the weather conditions in past years. The results will help you decide how hot, cold, wet, or windy it might be!

Date:

Astronomy

Nov. 15, 2011 Rise Set
Actual Time 6:35 AM EST 4:21 PM EST
Civil Twilight 6:05 AM EST 4:52 PM EST
Nautical Twilight 5:31 AM EST 5:26 PM EST
Astronomical Twilight 4:57 AM EST 5:59 PM EST
Moon 8:27 PM EST (11/15) 10:34 AM EST (11/15)
Length of Visible Light 10h 46m
Length of Day
9h 46m
Waning Gibbous, 79% of the Moon is Illuminated
Nov 15
Waning Gibbous
Nov 18
Last Quarter
Nov 25
New
Dec 2
First Quarter
Dec 10
Full

Hourly Weather History & Observations

Time (EST) Temp. Dew Point Humidity Pressure Visibility Wind Dir Wind Speed Gust Speed Precip Events Conditions
12:54 AM 61.0 °F 52.0 °F 72% 29.70 in 10.0 mi SSW 8.1 mph - N/A   Mostly Cloudy
1:54 AM 61.0 °F 52.0 °F 72% 29.68 in 10.0 mi SSW 8.1 mph - N/A   Scattered Clouds
2:54 AM 62.1 °F 51.1 °F 67% 29.67 in 10.0 mi SW 8.1 mph 17.3 mph N/A   Clear
3:54 AM 63.0 °F 51.1 °F 65% 29.66 in 10.0 mi SW 10.4 mph - N/A   Mostly Cloudy
4:54 AM 63.0 °F 51.1 °F 65% 29.65 in 10.0 mi SSW 11.5 mph - N/A   Scattered Clouds
5:54 AM 63.0 °F 51.1 °F 65% 29.65 in 10.0 mi SSW 10.4 mph - N/A   Clear
6:54 AM 63.0 °F 51.1 °F 65% 29.67 in 10.0 mi SW 9.2 mph 16.1 mph N/A   Partly Cloudy
7:54 AM 62.6 °F 51.8 °F 68% 29.72 in 10.0 mi SW 5.8 mph - N/A   Clear
8:54 AM 64.0 °F 51.1 °F 63% 29.73 in 10.0 mi SW 4.6 mph - N/A   Clear
9:54 AM 66.0 °F 50.0 °F 56% 29.72 in 10.0 mi WSW 10.4 mph - N/A   Mostly Cloudy
10:54 AM 66.9 °F 51.1 °F 57% 29.75 in 10.0 mi West 8.1 mph - N/A   Overcast
11:54 AM 68.0 °F 51.1 °F 55% 29.75 in 10.0 mi WSW 11.5 mph - N/A   Mostly Cloudy
12:54 PM 66.0 °F 51.1 °F 59% 29.78 in 10.0 mi West 11.5 mph 23.0 mph 0.00 in Rain Light Rain
1:54 PM 66.0 °F 48.9 °F 54% 29.79 in 10.0 mi West 10.4 mph - 0.00 in   Partly Cloudy
2:54 PM 64.9 °F 48.0 °F 54% 29.81 in 10.0 mi WSW 9.2 mph - N/A   Scattered Clouds
3:54 PM 64.0 °F 46.9 °F 54% 29.83 in 10.0 mi WSW 6.9 mph - N/A   Clear
4:54 PM 63.0 °F 45.0 °F 52% 29.86 in 10.0 mi West 5.8 mph - N/A   Overcast
5:54 PM 61.0 °F 46.0 °F 58% 29.88 in 10.0 mi WSW 6.9 mph - N/A   Mostly Cloudy
6:54 PM 60.8 °F 44.6 °F 55% 29.90 in 10.0 mi WSW 5.8 mph - N/A   Mostly Cloudy
7:54 PM 60.1 °F 43.0 °F 53% 29.92 in 10.0 mi WSW 4.6 mph - N/A   Overcast
8:54 PM 59.0 °F 43.0 °F 55% 29.95 in 10.0 mi WSW 4.6 mph - N/A   Overcast
9:54 PM 57.9 °F 42.1 °F 56% 29.95 in 10.0 mi SW 3.5 mph - N/A   Overcast
10:54 PM 57.0 °F 42.1 °F 57% 29.95 in 10.0 mi Calm Calm - N/A   Overcast
11:54 PM 55.9 °F 42.1 °F 60% 29.97 in 10.0 mi Calm Calm - N/A   Overcast